BLOCK DM-SL R/B, 26452

Orbit data source: Space-Track

BLOCK DM-SL R/B, 26452 is space debris in HEO originally from a launch on Fri, 28 Jul 2000 UTC launched from the Sea Launch (SEAL). Debris objects in space refer to the collection of defunct objects orbiting the Earth. Examples of debris include non-operational satellites, rocket bodies, and fragments generated from explosions, collisions, or faulty payload assembly.

Loading next visibility...
Identifier
26452, 2000-043B
Orbit
HEO
Last TLE update
1 day ago
Origin
Manufacturer
RKKE
Mission
Spacecraft
Bus & Motor
BLOK DM2, Unknown motor
Mass
~3,210 kg wet, ~3,210 kg dry
Launch date (UTC)
2000-07-28 (25 years ago)
Launch vehicle
Unknown
Launch site
Sea Launch (SEAL)
Object type
Payload
Rocket body
Debris
Shape & HBR
Cyl, 6.3 m
Radar Cross Section
23.684 m², Large (>1 m²)

Expand to show TLE details & history

TLE from 1 day ago
0 BLOCK DM-SL R/B
1 26452U 00043B   25139.44473385 -.00000139  00000-0  00000-0 0  9998
2 26452   0.9464 218.7211 6719164  18.3612  60.8237  2.16746345196056
Epoch: 2025-05-19T10:40Z
TLE epoch observation values (Epoch: 2025-05-19T10:40:25.004Z)
Latitude
0.38612°
Longitude
-21.82435°
Altitude
21,464.551 km
Speed
3.582 km/s
True Right ascension
01h 02m 32s
True Declination
0° 23' 08"
Sunlit
Object was in daylight at epoch
Visualization orbit readout
Latitude
-0.90619°
Longitude
72.40155°
Altitude
17,019.548 km
Speed
4.274 km/s
Apparent Right ascension
08h 07m 11s
Apparent Declination
-10° 37' 52"
Sunlit
Object is in daylight
Visualization observer readout
Local Sidereal Time
01:31:11
Azimuth
92.527° ESE
Elevation
-13.668°
Doppler factor
1
Orbital elements
Apogee altitude
35,796.964 km
Perigee altitude
1,897.97 km
Semi-major axis
25,225.604 km
Eccentricity
0.67192
Inclination
0.9464°
RAAN
218.7211°
Arg. of periapsis
18.3612°
True anomaly
Unknown
Mean anomaly
60.8237°
Eccentric anomaly
Unknown
Mean motion
0.54173 °/min
Orbital period
664.54 mins
BSTAR
0
Loading maneuver chart data...
Loading SW <> Apogee altitude chart data...
Loading historical data...
Loading historical data...
Loading historical data...
Loading historical data...
Loading historical data...
Loading historical data...
Loading historical data...
Other satellites on launch #43 in the year 2000 (2000-07-28 UTC)

BLOCK DM-SL R/B Visibility forecast

Observer location: undefined°, undefined°

Span
Click to sort rows by Start time (UTC) header in descending order
Start Az.
Max El. time (UTC)
Max El. Az.
Max El.
End time (UTC)
End Az.
191 mins2025-05-20 19:37:19.269Z248.345° W2025-05-20 20:50:19.269Z246.243° WSW15.155°2025-05-20 22:48:19.269Z253.089° W
|